This is the latest recevied weather packets stored in our database for station/object KB0RPJ. If no packets are shown the sender has not sent any weather packets the latest 1 day(s).
| Time | Temp. | Humidity | Pressure | Rain* | Wind** | Luminosity | Snow |
|---|---|---|---|---|---|---|---|
| 1777980905 | 11.11° C | 58% | 1009.2 hPa | 0 mm | 1.34 m/s, 25° | 3 W/m² | - |
| 1777980606 | 11.11° C | 58% | 1009.3 hPa | 0 mm | 1.34 m/s, 32° | 2 W/m² | - |
| 1777980305 | 11.11° C | 58% | 1009.3 hPa | 0 mm | 0.89 m/s, 31° | 1 W/m² | - |
| 1777980006 | 11.11° C | 57% | 1009.2 hPa | 0 mm | 0.89 m/s, 25° | 1 W/m² | - |
| 1777979705 | 11.11° C | 57% | 1009.3 hPa | 0 mm | 0.89 m/s, 48° | 1 W/m² | - |
| 1777979406 | 11.11° C | 57% | 1009.3 hPa | 0 mm | 1.34 m/s, 20° | 0 W/m² | - |
| 1777979118 | 11.11° C | 57% | 1009.4 hPa | 0 mm | 1.34 m/s, 27° | 0 W/m² | - |
| 1777978804 | 11.11° C | 57% | 1009.2 hPa | 0 mm | 0.89 m/s, 38° | 0 W/m² | - |
| 1777978506 | 11.11° C | 58% | 1009.2 hPa | 0 mm | 0.89 m/s, 39° | 0 W/m² | - |
| 1777978218 | 11.11° C | 58% | 1009.3 hPa | 0 mm | 1.34 m/s, 30° | 0 W/m² | - |
| 1777977905 | 11.11° C | 58% | 1009.3 hPa | 0 mm | 1.79 m/s, 19° | 0 W/m² | - |
| 1777977607 | 11.11° C | 56% | 1009.3 hPa | 0 mm | 0.45 m/s, 25° | 0 W/m² | - |
| 1777977305 | 11.11° C | 56% | 1009.2 hPa | 0 mm | 0 m/s | 0 W/m² | - |
| 1777977005 | 11.11° C | 55% | 1009.2 hPa | 0 mm | 0.89 m/s, 41° | 0 W/m² | - |
| 1777976705 | 11.67° C | 54% | 1009.5 hPa | 0 mm | 1.34 m/s, 44° | 0 W/m² | - |
| 1777976405 | 11.67° C | 55% | 1009.7 hPa | 0 mm | 1.79 m/s, 37° | 0 W/m² | - |
| 1777976105 | 11.67° C | 55% | 1009.9 hPa | 0 mm | 0.45 m/s, 11° | 0 W/m² | - |
| 1777975805 | 11.67° C | 54% | 1009.7 hPa | 0 mm | 0.45 m/s, 16° | 0 W/m² | - |
| 1777975504 | 11.67° C | 53% | 1009.6 hPa | 0 mm | 0.89 m/s, 33° | 0 W/m² | - |
| 1777975205 | 11.67° C | 53% | 1009.5 hPa | 0 mm | 1.34 m/s, 34° | 0 W/m² | - |
| 1777974905 | 11.67° C | 52% | 1009.5 hPa | 0 mm | 0.89 m/s, 11° | 0 W/m² | - |
| 1777974605 | 11.67° C | 52% | 1009.4 hPa | 0 mm | 1.34 m/s, 23° | 0 W/m² | - |
| 1777974306 | 11.67° C | 52% | 1009.4 hPa | 0 mm | 1.34 m/s, 18° | 0 W/m² | - |
| 1777974006 | 11.67° C | 51% | 1009.3 hPa | 0 mm | 2.24 m/s, 34° | 0 W/m² | - |
| 1777973709 | 11.67° C | 51% | 1009.2 hPa | 0 mm | 1.34 m/s, 30° | 0 W/m² | - |
* Rain latest hour (hover to see other rain measurements)
** Current wind speed in m/s (hover to see current wind gust speed)